Regional Weather Roundup
Issued by NWS Cleveland, OH

Home | Current Version | Previous Version | Text Only | Print | Product List | Glossary Off
Versions: 1 2 3 4 5 6 7 8 9 10 11 12 13 14 15 16 17 18 19 20 21 22 23 24 25 26 27 28 29 30 31 32 33 34 35 36 37 38 39 40 41 42 43 44 45 46 47 48 49 50

000
ASUS41 KCLE 291210
RWRCLE
OHIO REGIONAL WEATHER ROUNDUP
NATIONAL WEATHER SERVICE WILMINGTON, OH
800 AM EDT WED JUL 29 2015

NOTE: "FAIR" INDICATES FEW OR NO CLOUDS BELOW 12,000 FEET WITH NO
SIGNIFICANT WEATHER AND/OR OBSTRUCTIONS TO VISIBILITY.

OHZ001>008-015>018-024>027-034-035-043-044-291300-
   NORTHWEST OHIO

CITY           SKY/WX    TMP DP  RH WIND       PRES   REMARKS
DEFIANCE       PTSUNNY   74  67  78 CALM      29.97R
FINDLAY        SUNNY     74  68  81 S6        29.97S
TOLEDO EXPRESS MOSUNNY   71  67  87 CALM      29.97R
TOLEDO EXEC    MOSUNNY   73  67  81 CALM      29.97S
LIMA           SUNNY     74  70  87 S5        29.99R
$$

OHZ009>014-019>023-028>033-038-089-291300-
   NORTHEAST OHIO

CITY           SKY/WX    TMP DP  RH WIND       PRES   REMARKS
CLE-HOPKINS    PTSUNNY   74  65  73 S3        30.00S
CLE-LAKEFRONT  MOSUNNY   76  63  64 S9        29.96S
CUY CO. ARPT   PTSUNNY   77  66  69 SE7       29.99R
LORAIN-ELYRIA  SUNNY     69  65  86 CALM      29.99S
ASHTABULA      MOSUNNY   71  65  81 S3        30.00S
AKRON-CANTON   MOSUNNY   73  65  75 CALM      30.00S
WOOSTER        SUNNY     67  65  93 CALM      30.00S FOG
MANSFIELD      SUNNY     71  68  90 S3        30.01R
YOUNGSTOWN     MOSUNNY   70  64  81 E5        30.01R
$$

OHZ042-051>053-060>062-070>072-077>081-291300-
  SOUTHWEST OHIO

CITY           SKY/WX    TMP DP  RH WIND       PRES   REMARKS
CINC-COVINGTON MOSUNNY   76  74  93 CALM      30.00R FOG
CINC-LUNKEN    MOSUNNY   73  73 100 CALM      29.99R FOG
HAMILTON       SUNNY     76  74  93 CALM      30.00R FOG
DAYTON         MOSUNNY   77  73  87 CALM      30.01R
WRIGHT-PAT AFB MOSUNNY   74  72  93 CALM      29.99R FOG
DAYTON GENERAL SUNNY     76  72  87 SW3       30.00R FOG
WILMINGTON     SUNNY     72  70  93 CALM      30.00R FOG
$$

OHZ036-037-039>041-045>050-054>059-063>069-073>076-082>088-291300-
  CENTRAL AND SOUTHEAST OHIO

CITY           SKY/WX    TMP DP  RH WIND       PRES   REMARKS
COLUMBUS       MOSUNNY   75  67  76 CALM      29.98S
OSU AIRPORT    SUNNY     74  70  87 CALM      29.99R FOG
BOLTON FIELD   SUNNY     72  72 100 CALM      30.00R FOG
RICKENBACK AFB SUNNY     71  70  96 CALM      29.98S FOG
NEWARK         SUNNY     72  68  87 CALM      29.98F FOG
MARION         SUNNY     72  67  84 S3        30.00R HAZE
LANCASTER      SUNNY     72  69  90 CALM      29.99S FOG
ZANESVILLE     SUNNY     73  67  81 CALM      29.99S HAZE
NEW PHILLY     SUNNY     69  67  93 CALM      30.00S FOG
$$


USA.gov is the U.S. government's official web portal to all federal, state and local government web resources and services.